DW1410 Weather Reports


Display with metric or nautical units.
time (UTC)temp
F
wind
direction
speed
MPH
gust
MPH
rain 1hr
in
rain 24hr
in
rain mn
in
humidity
%
barometer
mb
20260508100004 55 57 3.0 11.0 0.00 0.00 0.00 33 1024.9
20260508094501 55 301 4.0 11.0 0.00 0.00 0.00 34 1024.9
20260508093001 55 321 3.0 13.0 0.00 0.00 0.00 36 1024.9
20260508091501 54 304 2.0 8.0 0.00 0.00 0.00 35 1024.9
20260508090003 54 355 3.0 9.0 0.00 0.00 0.00 35 1025.0
20260508084501 54 5 4.0 10.0 0.00 0.00 0.00 35 1025.0
20260508083001 53 337 2.0 11.0 0.00 0.00 0.00 36 1025.1
20260508081501 53 60 4.0 12.0 0.00 0.00 0.00 38 1025.1
20260508080009 52 32 4.0 10.0 0.00 0.00 0.00 39 1025.0
20260508074501 52 274 3.0 10.0 0.00 0.00 0.00 42 1024.9
20260508073003 51 282 2.0 5.0 0.00 0.00 0.00 42 1024.7
20260508071501 50 271 2.0 8.0 0.00 0.00 0.00 42 1024.8
20260508070011 50 308 2.0 8.0 0.00 0.00 0.00 44 1024.7
20260508064505 49 282 3.0 6.0 0.00 0.00 0.00 44 1024.5
20260508063000 48 298 3.0 8.0 0.00 0.00 0.00 45 1024.3
20260508061501 48 275 2.0 6.0 0.00 0.00 0.00 47 1024.1
20260508060004 46 296 2.0 7.0 0.00 0.00 0.00 49 1024.0
20260508054501 45 288 3.0 5.0 0.00 0.00 0.00 54 1023.9
20260508053001 46 5 1.0 4.0 0.00 0.00 0.00 59 1023.8
20260508051500 43 62 1.0 5.0 0.00 0.00 0.00 66 1023.7
20260508050002 41 342 1.0 3.0 0.00 0.00 0.00 69 1023.5
20260508044501 39 11 1.0 3.0 0.00 0.00 0.00 74 1023.4
20260508043001 36 321 0.0 1.0 0.00 0.00 0.00 77 1023.4
20260508041503 35 321 0.0 1.0 0.00 0.00 0.00 78 1023.3
20260508040010 35 321 0.0 1.0 0.00 0.00 0.00 79 1023.2
20260508034502 33 321 0.0 1.0 0.00 0.00 0.00 83 1023.1
20260508033002 31 321 0.0 0.0 0.00 0.00 0.00 87 1022.9
20260508031501 28 321 0.0 1.0 0.00 0.00 0.00 90 1022.7
20260508030003 27 321 0.0 1.0 0.00 0.00 0.00 89 1022.7
20260508024501 27 321 0.0 0.0 0.00 0.00 0.00 88 1022.6
20260508023000 28 321 0.0 1.0 0.00 0.00 0.00 88 1022.4
20260508021501 28 321 0.0 0.0 0.00 0.00 0.00 87 1022.0
20260508020003 28 321 0.0 0.0 0.00 0.00 0.00 86 1021.9
20260508014502 29 321 0.0 0.0 0.00 0.00 0.00 85 1021.7
20260508013000 30 321 0.0 1.0 0.00 0.00 0.00 84 1021.5
20260508011502 30 321 0.0 1.0 0.00 0.00 0.00 82 1021.4
20260508010002 31 321 0.0 2.0 0.00 0.00 0.00 82 1021.2
20260508004500 31 297 0.0 1.0 0.00 0.00 0.00 82 1021.1
20260508003000 31 297 0.0 1.0 0.00 0.00 0.00 81 1021.0
20260508001601 32 297 0.0 1.0 0.00 0.00 0.00 79 1020.7
20260508000005 33 297 1.0 2.0 0.00 0.00 0.00 78 1020.5
20260507234502 34 297 0.0 2.0 0.00 0.00 0.00 76 1020.3
20260507233002 35 297 0.0 1.0 0.00 0.00 0.00 75 1020.1
20260507231502 36 307 0.0 3.0 0.00 0.00 0.00 73 1020.0
20260507230011 36 333 0.0 4.0 0.00 0.00 0.00 71 1019.9
20260507224502 37 310 0.0 2.0 0.00 0.00 0.00 70 1019.8
20260507223002 37 304 0.0 6.0 0.00 0.00 0.00 69 1019.5
20260507221501 38 305 0.0 3.0 0.00 0.00 0.00 67 1019.4
20260507220001 38 298 1.0 4.0 0.00 0.00 0.00 66 1019.3
20260507214604 38 306 1.0 3.0 0.00 0.00 0.00 65 1019.1
20260507213103 38 304 0.0 3.0 0.00 0.00 0.00 65 1019.0
20260507211603 39 309 0.0 2.0 0.00 0.00 0.00 64 1018.6
20260507210114 39 309 0.0 2.0 0.00 0.00 0.00 63 1018.5
20260507210005 39 309 0.0 2.0 0.00 0.00 0.00 62 1018.5
20260507204559 40 296 0.0 1.0 0.00 0.00 0.00 60 1018.2
20260507203100 41 296 1.0 4.0 0.00 0.00 0.00 58 1018.1
20260507201600 42 288 0.0 1.0 0.00 0.00 0.00 56 1017.9
20260507200106 42 288 1.0 4.0 0.00 0.00 0.00 54 1017.7
20260507200002 42 349 0.0 3.0 0.00 0.00 0.00 54 1017.6
20260507194601 43 342 1.0 3.0 0.00 0.00 0.00 52 1017.4
20260507193059 44 290 0.0 3.0 0.00 0.00 0.00 49 1017.2
20260507191603 45 261 0.0 3.0 0.00 0.00 0.00 46 1017.0
20260507190113 46 291 0.0 4.0 0.00 0.00 0.00 45 1016.9
20260507190006 46 286 1.0 4.0 0.00 0.00 0.00 44 1016.9
20260507184600 47 285 1.0 5.0 0.00 0.00 0.00 42 1016.7
20260507183117 47 300 1.0 3.0 0.00 0.00 0.00 40 1016.5
20260507181606 48 360 2.0 7.0 0.00 0.00 0.00 39 1016.4
20260507180106 49 360 2.0 11.0 0.00 0.00 0.00 36 1016.1
20260507180002 49 318 2.0 11.0 0.00 0.00 0.00 36 1016.1
20260507174608 50 323 4.0 11.0 0.00 0.00 0.00 35 1016.0
20260507173118 51 292 3.0 9.0 0.00 0.00 0.00 34 1015.7
20260507171601 52 263 3.0 8.0 0.00 0.00 0.00 30 1015.5
20260507170101 52 297 3.0 8.0 0.00 0.00 0.00 29 1015.4
20260507170002 52 285 2.0 8.0 0.00 0.00 0.00 29 1015.4
20260507164633 53 273 4.0 9.0 0.00 0.00 0.00 28 1015.4
20260507163101 52 329 2.0 11.0 0.00 0.00 0.00 28 1015.2
20260507161605 53 47 3.0 9.0 0.00 0.00 0.00 28 1015.1
20260507160004 54 324 2.0 13.0 0.00 0.00 0.00 27 1014.9
20260507154601 54 311 2.0 11.0 0.00 0.00 0.00 27 1014.7
20260507153100 54 312 7.0 15.0 0.00 0.00 0.00 27 1014.5
20260507151600 55 319 3.0 13.0 0.00 0.00 0.00 28 1014.4
20260507150100 56 289 3.0 15.0 0.00 0.00 0.00 29 1014.1
20260507150003 56 25 4.0 15.0 0.00 0.00 0.00 28 1014.2
20260507144602 58 239 5.0 13.0 0.00 0.00 0.00 27 1014.1
20260507143119 58 313 4.0 8.0 0.00 0.00 0.00 25 1014.0
20260507141604 57 269 3.0 7.0 0.00 0.00 0.00 25 1013.8
20260507140100 57 40 2.0 7.0 0.00 0.00 0.00 25 1013.9
20260507140002 57 36 1.0 6.0 0.00 0.00 0.00 25 1013.9
20260507134600 57 296 3.0 9.0 0.00 0.00 0.00 23 1013.9
20260507133100 57 178 2.0 8.0 0.00 0.00 0.00 23 1013.7
20260507131606 57 180 1.0 8.0 0.00 0.00 0.00 23 1013.8
20260507130100 57 298 3.0 7.0 0.00 0.00 0.00 24 1013.9
20260507130002 57 319 2.0 7.0 0.00 0.00 0.00 24 1013.8
20260507124606 56 28 1.0 8.0 0.00 0.00 0.00 23 1013.7
20260507123100 56 53 6.0 11.0 0.00 0.00 0.00 23 1013.9
20260507121601 56 298 3.0 9.0 0.00 0.00 0.00 24 1013.7
20260507120100 56 329 2.0 8.0 0.00 0.00 0.00 23 1013.9
20260507120006 56 298 2.0 8.0 0.00 0.00 0.00 24 1013.9
20260507114611 55 78 3.0 7.0 0.00 0.00 0.00 23 1013.9
20260507113129 56 293 2.0 5.0 0.00 0.00 0.00 25 1014.0
20260507111600 56 275 2.0 7.0 0.00 0.00 0.00 26 1014.0
20260507110100 56 57 2.0 6.0 0.00 0.00 0.00 25 1013.9
20260507110004 56 13 2.0 6.0 0.00 0.00 0.00 24 1013.9
20260507104601 56 222 1.0 4.0 0.00 0.00 0.00 26 1014.0
20260507103100 54 284 1.0 6.0 0.00 0.00 0.00 29 1013.9
20260507101600 55 279 1.0 5.0 0.00 0.00 0.00 27 1013.8